COSMOS 970 DEB, 64997

Orbit data source: Space-Track

COSMOS 970 DEB, 64997 is space debris in LEO originally from a launch on Wed, 21 Dec 1977 UTC launched from the Tyuratam Missile And Space Complex (TTMTR). Debris objects in space refer to the collection of defunct objects orbiting the Earth. Examples of debris include non-operational satellites, rocket bodies, and fragments generated from explosions, collisions, or faulty payload assembly.

Loading next visibility...
Identifier
64997, 1977-121DJ
Orbit
LEO
Country
Flag of CISCIS
Related business
Manufacturer
Unknown
Mission
Spacecraft
Bus & Motor
Unknown
Mass
Unknown
Launch date (UTC)
1977-12-21 (48 years ago)
Launch vehicle
Unknown
Launch site
Tyuratam Missile And Space Complex (TTMTR)
Object type
Payload
Rocket body
Debris
Shape & HBR
Unknown shape, 0.1 m
Radar Cross Section
Small (<0.1 m²)

Expand to show TLE details & history
Last TLE update: 5 days ago

TLE from 5 days ago
0 COSMOS 970 DEB
1 64997U 77121DJ  26166.88007094  .00000072  00000-0  16393-3 0  9994
2 64997  65.8159  31.8094 0151015 243.9105 114.6347 13.68392924200075
Epoch: 2026-06-15T21:07Z
TLE epoch observation values (Epoch: 2026-06-15T21:07:18.129Z)
Latitude
0.00002°
Longitude
170.82376°
Altitude
1,055.184 km
Speed
7.301 km/s
True Right ascension
02h 07m 14s
True Declination
0° 00' 00"
Sunlit
Object was in daylight at epoch
Visualization orbit readout
Latitude
Unknown
Longitude
Unknown
Altitude
Unknown
Speed
Unknown
Apparent Right ascension
Unknown
Apparent Declination
Unknown
Sunlit
N/A
Visualization observer readout
Local Sidereal Time
07:12:39
Azimuth
Unknown
Elevation
Unknown
Doppler factor
Unknown
Orbital elements
Apogee altitude
1,115.349 km
Perigee altitude
892.39 km
Semi-major axis
7,382.007 km
Eccentricity
0.0151
Inclination
65.8159°
RAAN
31.8094°
Arg. of periapsis
243.9105°
True anomaly
116.19522°
Mean anomaly
114.6347°
Eccentric anomaly
115.41621°
Mean motion
3.42201 °/min
Orbital period
105.2 mins
BSTAR
0.00016393
Loading maneuver chart data...
Computing Atmospheric mass density...
Loading historical data...
Loading historical data...
Loading historical data...
Loading historical data...
Loading historical data...
Loading historical data...
Loading historical data...

Documentation

Showing up to 5 results
|